Radar is unstable, so pay attention to the date and time in the image
METAR data is displayed for current image time. For newest METAR data use Cloud coverage page


Latest  Newer  Older  Last 2 hours animation  Current image  Latest image  Summary per 24h (testing)  Summary per 7d (testing) 
Cloud coverage sat images  Infrared sat images 
Real-time lightning map Aurora Forecast

All time is UTC (add 2 hours in wintertime, 3 hours in DST for Latvia local time)

2022/12/09 12:50 EVRA 091250Z 18006KT 8000 NSC M08/M09 Q1010 NOSIG
2022/12/09 12:50 EVGA 091250Z 18007KT 4300 BR BKN002 OVC004 M04/M05 Q1010 TEMPO 0700 FZFG BKN001
2022/12/09 12:50 EVLA 091250Z AUTO 07002KT CAVOK M06/M06 Q1009
2022/12/09 12:50 EVVA 091250Z AUTO 00000KT CAVOK M04/M04 Q1009
2022/12/09 12:50 EYKA 091250Z 36004KT 330V040 1100 0550W R08/1600D BR BCFG OVC002 M02/M04 Q1010
2022/12/09 12:50 EYPA 091250Z 17004KT CAVOK M05/M06 Q1010
2022/12/09 12:50 EYSA 091250Z 14004KT 0300 0200NW R14L/0350N FZFG NSC M10/M11 Q1010 NOSIG
2022/12/09 12:50 EYVI 091250Z 19002KT 1000 R19/1300U -SN BR OVC004 M00/M00 Q1009 NOSIG
2022/12/09 12:50 EEEI 091250Z 20003KT 9999 FEW004 BKN044 M08/M09 Q1008 NOSIG
2022/12/09 12:50 EEKA 091250Z 21003KT 9999 FEW023 M03/M03 Q1007
2022/12/09 12:50 EEKE 091250Z 00000KT 9999 SCT041 SCT047CB M02/M02 Q1008
2022/12/09 12:50 EEPU 091250Z AUTO 00000KT 0250 R21/P2000N FZFG VV001 M08/M10 Q1008
2022/12/09 12:50 EETN 091250Z 18003KT 0300 R08/0700N FZFG BKN002 Q1008 TEMPO 0800
2022/12/09 12:50 EETU 091250Z 27008KT 9999 SCT009 BKN031 OVC048 M02/M03 Q1008
CD  STATION         ICAO  IATA  SYNOP   LAT     LONG   ELEV   M  N  V  U  A  C
   RIGA AIRPORT     EVRA               56 55N  023 58E   10   X     T          6 LV
   LIELVARDE        EVGA               56 47N  024 51E   61   X     T          7 LV
   LIEPAJA INTL     EVLA        26406  56 31N  021 06E    4   X                8 LV
   VENTPILS         EVVA               57 21N  021 33E    6   X                8 LV
   KAUNAS           EYKA               54 54N  023 55E   77   X     T          6 LT
   PALANGA INTL     EYPA               55 55N  021 03E   10   X                6 LT
   SIAULIAI INTL    EYSA               55 54N  023 24E  135   X     T          6 LT
   VILNIUS INTL     EYVI        26730  54 38N  025 17E  197   X     T          6 LT
   AMARI AIR BASE   EEEI               59 16N  024 12E   19   X     T          7 EE
   KARDLA           EEKA        26116  58 59N  022 50E    4   X                8 EE
   KURESSAARE       EEKE               58 14N  022 31E    4   X                8 EE
   PARNU            EEPU               58 25N  024 28E   14   X                8 EE
   TALLINN          EETN        26038  59 24N  024 49E   40   X     T          8 EE
   TARTU            EETU               58 19N  026 41E   67   X                8 EE

!   CD = 2 letter state (province) abbreviation
!   STATION = 16 character station long name
!   ICAO = 4-character international id
!   IATA = 3-character (FAA) id
!   SYNOP = 5-digit international synoptic number
!   LAT = Latitude (degrees minutes)
!   LON = Longitude (degree minutes)
!   ELEV = Station elevation (meters)
!   M = METAR reporting station.   Also Z=obsolete? site
!   N = NEXRAD (WSR-88D) Radar site
!   V = Aviation-specific flag (V=AIRMET/SIGMET end point, A=ARTCC T=TAF U=T+V)
!   U = Upper air (rawinsonde=X) or Wind Profiler (W) site
!   A = Auto (A=ASOS, W=AWOS, M=Meso, H=Human, G=Augmented) (H/G not yet impl.)
!   C = Office type F=WFO/R=RFC/C=NCEP Center
!   Digit that follows is a priority for plotting (0=highest)
!   Country code (2-char) is last column


rain/snow radar image from www.meteo.lv and METAR data from weather.noaa.gov